Location: Blienschwiller
(48.3416°N, 7.4182°E)
Time: 01:17:17
(UTC+00:00)

NOSS 2-1 (E) - Pass Details

Date: 18 February 2020
Orbit: 450 x 1753 km, 63.3° (Epoch: 03 April)

Event Time Altitude Azimuth Distance (km) Brightness Sun altitude
Exits shadow 04:17:38 50° 22° (NNE) 625 3.7 -23.2°
Drops below altitude 10° 04:20:38 10° 39° (NE) 1,785 6.5 -22.7°
Sets 04:23:04 0° 41° (NE) 2,815 7.7 -22.3°
